User: anonymous   Login
Location: Unspecified
(0.0000°N, 0.0000°E)
Time: 01:47:15
(UTC+01:00)
Language:

Iridium 33 - Orbit

View from above orbital plane
View from above orbital plane
View from above satellite
View from above satellite

Ground track
Ground track

The orbit data is extracted from the following two-line orbital elements,

1 24946U 97051C   17058.31620708  .00000107  00000-0  31573-4 0  9996
2 24946  86.3915 332.7333 0006042 232.9156 127.1488 14.33538698 18294
Epoch (UTC): 27 February 2017 07:35:20
Eccentricity: 0.0006042
inclination: 86.3915°
perigee height: 775 km
apogee height: 784 km
right ascension of ascending node: 332.7333°
argument of perigee: 232.9156°
revolutions per day: 14.33538698
mean anomaly at epoch: 127.1488°
orbit number at epoch: 1829

The dashed part of the orbit path shows where the satellite is in the earth's shadow,  

DLR